This is the latest recevied weather packets stored in our database for station/object K5DLF-13. If no packets are shown the sender has not sent any weather packets the latest 10 day(s).
| Time | Temp. | Humidity | Pressure | Rain* | Wind** | Luminosity | Snow |
|---|---|---|---|---|---|---|---|
| 1777845602 | 26.11° C | 46% | 1016.5 hPa | 0 mm | - | 178 W/m² | - |
| 1777845302 | 26.11° C | 47% | 1016.6 hPa | 0 mm | - | 462 W/m² | - |
| 1777845002 | 26.67° C | 48% | 1016.7 hPa | 0 mm | - | 591 W/m² | - |
| 1777844702 | 26.67° C | 46% | 1016.7 hPa | 0 mm | - | 629 W/m² | - |
| 1777844402 | 26.67° C | 45% | 1016.7 hPa | 0 mm | - | 638 W/m² | - |
| 1777844102 | 27.22° C | 45% | 1016.7 hPa | 0 mm | - | 645 W/m² | - |
| 1777843802 | 27.22° C | 45% | 1016.9 hPa | 0 mm | - | 664 W/m² | - |
| 1777843502 | 27.78° C | 44% | 1016.9 hPa | 0 mm | - | 677 W/m² | - |
| 1777843202 | 27.78° C | 45% | 1017.1 hPa | 0 mm | - | 698 W/m² | - |
| 1777842902 | 27.78° C | 42% | 1017.1 hPa | 0 mm | - | 707 W/m² | - |
| 1777842602 | 27.78° C | 45% | 1017.1 hPa | 0 mm | - | 722 W/m² | - |
| 1777842302 | 27.78° C | 42% | 1017.1 hPa | 0 mm | - | 737 W/m² | - |
| 1777842002 | 28.33° C | 43% | 1017.3 hPa | 0 mm | - | 745 W/m² | - |
| 1777841702 | 28.33° C | 44% | 1017.3 hPa | 0 mm | - | 765 W/m² | - |
| 1777841402 | 28.33° C | 40% | 1017.2 hPa | 0 mm | - | 772 W/m² | - |
| 1777841102 | 28.33° C | 39% | 1017.3 hPa | 0 mm | - | 791 W/m² | - |
| 1777840802 | 28.89° C | 41% | 1017.4 hPa | 0 mm | - | 819 W/m² | - |
| 1777840502 | 28.89° C | 42% | 1017.6 hPa | 0 mm | - | 810 W/m² | - |
| 1777840202 | 28.89° C | 41% | 1017.7 hPa | 0 mm | - | 831 W/m² | - |
| 1777839902 | 28.89° C | 43% | 1017.7 hPa | 0 mm | - | 722 W/m² | - |
| 1777839602 | 28.89° C | 44% | 1017.8 hPa | 0 mm | - | 817 W/m² | - |
| 1777839302 | 28.33° C | 39% | 1017.9 hPa | 0 mm | - | 860 W/m² | - |
| 1777839002 | 28.89° C | 36% | 1017.9 hPa | 0 mm | - | 865 W/m² | - |
| 1777838702 | 28.33° C | 41% | 1018 hPa | 0 mm | - | 868 W/m² | - |
| 1777838402 | 28.33° C | 42% | 1018 hPa | 0 mm | - | 879 W/m² | - |
* Rain latest hour (hover to see other rain measurements)
** Current wind speed in m/s (hover to see current wind gust speed)